Location: Ailly
(50.0793°N, 1.9944°E)
Time: 00:15:06
(UTC+00:00)

SMAP - Pass Details

Date: 15 January 2026
Orbit: 682 x 683 km, 98.1° (Epoch: 16 February)

Event Time Altitude Azimuth Distance (km) Brightness Sun altitude
Rises 06:38:12 0° 12° (NNE) 3,060 6.3 -10.4°
Reaches altitude 10° 06:40:28 10° 10° (N) 2,139 5.5 -10.1°
Maximum altitude 06:45:06 67° 288° (WNW) 742 3.0 -9.4°
Drops below altitude 10° 06:49:43 10° 206° (SSW) 2,122 5.6 -8.7°
Sets 06:51:57 0° 204° (SSW) 3,033 6.4 -8.3°
